www.pogodaiklimat.ru

Погода и климат >> Архив погоды >> Мозамбик >> Beira


ПОГОДА в Beira

  • Прогноз погоды в Beira
  • Монитор погоды в Beira
  • Климат города

АРХИВ ПОГОДЫ в Beira

Время (UTC), дата Ветер
(напр.,м/с)
 
Видим.   Явления Облачность Т
(С)
Тd
(С)
f
(%)
Тe
(С)
Тes
(С)
Комфортность P
(гПа)
Po
(гПа)
Тmin
(С)
Tmax
(С)
R
(мм)
R24
(мм)
S
(см)
03 10.08 В 2 15 км 6/6 600 м
[Cu Sc]
+20.0 +18.4 91 +24 +24 комфорт 1022.2 1022.0
06 10.08 В 3 8000 м слабый дождь 10/10 200 м
[Cu Sc]
+18.6 +17.8 95 +20 +20 1023.6 1024.0 +16.8 12
09 10.08 ЮВ 2 15 км {дождь} 10/6 300 м
[Cu Sc Ac As]
+22.2 +18.9 82 +28 +30 душно 1024.1 1024.0
12 10.08 В 2 10 км {дождь} 10/6 300 м
[Cu Sc Ac As]
+20.4 +18.1 87 +25 +26 комфорт 1022.3 1022.0 0.3
15 10.08 ЮВ 3 10 км 9/6 300 м
[Cu Sc Ac As]
+20.6 +18.1 86 +25 +25 комфорт 1021.7 1022.0
18 10.08 ЮВ 5 10 км 9/6 300 м
[Cu Sc Ac As]
+21.4 +18.1 81 +26 +26 душно 1022.3 1022.0 +22.5 0.3
21 10.08 ЮВ 3 10 км 9/5 300 м
[Cu Sc Ac As]
+21.4 +19.3 88 +26 +26 душно 1022.7 1023.0
00 11.08 ЮВ 2 15 км 8/3 300 м
[Cu Sc Ac As]
+20.6 +18.3 87 +25 +25 комфорт 1022.0 1022.0
03 11.08 ЮВ 2 15 км 4/4 300 м
[Cu med, cong Ac As]
+18.8 +17.6 93 +21 +21 комфорт 1021.7 1022.0
06 11.08 ЮВ 3 25 км 3/3 300 м
[Cu med, cong]
+20.4 +18.4 88 +24 +27 комфорт 1023.3 1023.0 +18.0 0.3
12 11.08 ЮВ 4 20 км 3/3 300 м
[Cu med, cong]
+25.4 +20.4 74 +31 +36 очень
душно
1020.7 1021.0
15 11.08 ЮВ 5 15 км 1/1 300 м
[Cu med, cong]
+24.0 +19.7 77 +29 +29 душно 1020.4 1020.0
18 11.08 ЮВ 3 15 км 1/1 300 м
[Cu med, cong]
+21.8 +20.6 93 +28 +28 душно 1021.3 1021.0 +25.8
21 11.08 ЮВ 2 15 км ясно +20.8 +19.7 93 +26 +26 душно 1021.6 1022.0
00 12.08 штиль 0 15 км 1/1 300 м
[Cu hum]
+19.8 +18.8 94 +23 +23 комфорт 1021.0 1021.0
03 12.08 З 3 300 м туман ?/? +18.6 +17.9 96 +20 +20 1021.4 1021.0
06 12.08 З 2 400 м туман ?/? +19.6 +18.8 95 +23 +23 комфорт 1022.4 1022.0 +18.4
09 12.08 Ю 2 25 км 8/8 300 м
[Cu Sc]
+22.7 +20.5 87 +29 +33 очень
душно
1022.7 1023.0
12 12.08 ЮЗ 4 30 км {туман} 3/3 300 м
[Cu med, cong]
+24.6 +20.9 80 +31 +35 очень
душно
1020.1 1020.0
18 12.08 ЮВ 3 25 км 3/3 600 м
[Cu med, cong]
+21.8 +19.3 86 +27 +27 душно 1020.8 1021.0 +25.0
00 13.08 ЮВ 3 15 км 4/4 300 м
[Cu med, cong]
+20.6 +19.6 94 +25 +25 комфорт 1020.0 1020.0
06 13.08 З 3 900 м туман ?/? +19.0 +18.9 99 +21 +21 комфорт 1021.3 1021.0 +18.4
09 13.08 ЮВ 1 20 км 5/5 300 м
[Cu med, cong]
+24.2 +21.1 83 +31 +39 очень
душно
1021.7 1022.0
15 13.08 ЮВ 5 25 км 3/3 600 м
[Cu med, cong]
+24.3 +19.2 73 +29 +29 душно 1019.5 1020.0
18 13.08 В 3 25 км 3/3 600 м
[Cu Sc]
+22.5 +21.7 95 +30 +30 очень
душно
1020.2 1020.0 +25.8
06 14.08 З 4 15 км {туман} 5/3 300 м
[Cu Sc Ac trans]
+20.8 +19.7 93 +26 +28 душно 1023.2 1023.0 +18.5
09 14.08 ЮЗ 2 20 км 4/4 600 м
[Cu med, cong]
+24.4 +20.9 81 +31 +40 очень
душно
1023.1 1023.0
15 14.08 З 4 20 км 4/3 600 м
[Cu Sc Ac trans]
+24.7 +19.4 72 +30 +30 очень
душно
1020.4 1020.0
18 14.08 З 1 20 км 3/3 600 м
[Cu Sc]
+21.0 +19.6 92 +27 +27 душно 1021.2 1021.0 +26.2
21 14.08 З 3 20 км 3/3 600 м
[Cu med, cong]
+21.0 +18.1 84 +26 +26 душно 1021.2 1021.0
00 15.08 З 3 15 км ясно +20.9 +18.1 84 +26 +26 душно 1019.8 1020.0
03 15.08 З 3 15 км 1/1 300 м
[Cu hum]
+18.0 +16.5 91 +18 +18 1019.9 1020.0
06 15.08 З 4 15 км 1/1 600 м
[Cu Sc]
+20.4 +18.2 87 +24 +27 комфорт 1020.9 1021.0 +17.8
09 15.08 З 2 25 км 3/3 600 м
[Cu med, cong]
+24.4 +19.4 74 +30 +41 очень
душно
1020.2 1020.0
12 15.08 З 3 25 км 1/1 600 м
[Cu med, cong]
+25.6 +18.8 66 +31 +39 очень
душно
1017.2 1017.0
15 15.08 З 4 20 км 1/1 600 м
[Cu med, cong]
+25.2 +17.7 63 +29 +29 душно 1016.5 1017.0
18 15.08 С 2 20 км 1/1 600 м
[Cu med, cong]
+20.0 +19 +19 1016.7 1017.0 +25.8
21 15.08 СЗ 2 15 км 1/1 300 м
[Cu med, cong]
+19.2 +17.6 90 +22 +22 комфорт 1016.3 1016.0
03 16.08 З 2 15 км ясно +17.2 +16.8 97 +18 +18 1015.5 1016.0
06 16.08 СЗ 4 10 км 1/1 600 м
[Sc]
+19.2 +16.1 82 +21 +23 комфорт 1016.3 1016.0 +16.6
09 16.08 С 3 15 км ясно +24.8 +17.7 65 +29 +43 душно 1015.0 1015.0
12 16.08 С 6 25 км 1/1 600 м
[Cu med, cong]
+28.9 +17.9 51 +33 +37 очень
душно
1010.9 1011.0
15 16.08 ЮЗ 6 25 км 1/1 300 м
[Cu med, cong]
+25.4 +19.2 69 +31 +31 очень
душно
1010.1 1010.0
21 16.08 СВ 3 15 км ясно +19.4 +17.5 89 +22 +22 комфорт 1010.6 1011.0

 

Местоположение метеостанции Beira (Мозамбик): широта -19.80 долгота 34.90 высота над уровнем моря 16 м.

В архиве по умолчанию представлена погода в Beira за последнюю неделю. Архивные данные за месяц целиком и за предыдущие месяцы, начиная с января 2011 года, Вы можете получить, выбрав интересующий диапазон дат из раскрывающегося списка и нажав кнопку "Ввод!".

Внимание! Время в таблицах - всемирное. Для получения местного времени необходимо прибавить поправку, которая в Beira равна 2 ч.

Смотрите также архив погоды в соседних городах и на ближайших метеорологических станциях:

Погода в Chimoio (Мозамбик) (168 км)
Погода в Caia (Мозамбик) (224 км)
Погода в Chipinge (Зимбабве) (243 км)
Погода в Mukandi (Зимбабве) (246 км)
Погода в Vilanculos (Мозамбик) (249 км)
Погода в Catandica (Мозамбик) (265 км)
Погода в Massangena (Мозамбик) (280 км)
Погода в Wyanga (Зимбабве) (282 км)
Погода в Quelimane (Мозамбик) (298 км)
Погода в Rusape (Зимбабве) (323 км)

Пояснения к столбцам:

Ветер - указаны скорость ветра в м/с - средняя за 10 мин, порывы в срок и между сроками (в фигурных скобках) и направление, откуда дует ветер: С - северный, СВ - северо-восточный, В - восточный, ЮВ - юго-восточный, Ю - южный, ЮЗ - юго-западный, З - западный, СЗ - северо-западный.
Видимость - горизонтальная дальность видимости в метрах или километрах. При видимости от 1 до 10 км при отсутствии осадков обычно наблюдается дымка, при ухудшении видимости до 1 км и менее - туман. В сухую погоду видимость может ухудшаться дымом, пылью или мглою.
Явления - указаны атмосферные явления, наблюдавшиеся в срок или в последний час перед сроком; фигурными скобками обозначены явления, наблюдавшиеся между сроками (за 1-3 часа до срока); квадратными скобками обозначены град или гололедные отложения с указанием их диаметра в мм.
Облачность - указаны через наклонную черту общая и нижняя облачность в баллах и высота нижней границы облаков в метрах; квадратными скобками обозначены формы облаков: Ci - перистые, Cs - перисто-слоистые, Cc - перисто-кучевые, Ac - высококучевые, As - высокослоистые, Sc - слоисто-кучевые, Ns - слоисто-дождевые, Cu - кучевые, Cb - кучево-дождевые. Подробнее классификацию облаков см. в Атласе облаков (PDF).
T - Температура воздуха - температура, измеренная на высоте 2 м над землей.
Td - Температура точки росы - температура, при понижении до которой содержащийся в воздухе водяной пар достигнет насыщения.
f - Относительная влажность воздуха - влажноcть воздуха, измеренная на высоте 2 м над землей.
Te - Эффективная температура - температура, которую ощущает одетый по сезону человек в тени. Характеристика душности погоды. При расчете учитывается влияние влажности воздуха и скорости ветра на теплоощущения человека.
Tes - Эффективная температура на солнце - температура, которую ощущает человек, с поправкой на солнечный нагрев. Характеристика знойности погоды. Зависит от высоты солнца над горизонтом, облачности и скорости ветра. Ночью, в пасмурную погоду, а также при ветре 12 м/с и более поправка равна нулю.
P - Атмосферное давление - приведенное к уровню моря атмосферное давление.
Po - Атмосферное давление - измеренное на уровне метеостанции атмосферное давление.
Tmin - Минимальная температура - минимум температуры воздуха на высоте 2 м над землей.
Tmax - Максимальная температура - максимум температуры воздуха на высоте 2 м над землей.
R - Количество осадков - Количество выпавших осадков за период времени, мм. При наведении курсора мыши на число - период времени, за который выпало указанное количество осадков.
R24 - Количество осадков - Количество выпавших осадков за 24 часа, мм.
S - Снежный покров - Высота снежного покрова, см. При наведении курсора мыши на число - состояние снежного покрова и степень покрытия местности в баллах.